Location: G�ndlingen
(48.0142°N, 7.6396°E)
Time: 19:10:12
(UTC+00:00)

Cosmos 2333 - Pass Details

Date: 05 July 2020
Orbit: 828 x 867 km, 70.9° (Epoch: 11 August)

Event Time Altitude Azimuth Distance (km) Brightness Sun altitude
Rises 20:29:31 0° 189° (S) 3,369 6.9 -8.1°
Reaches altitude 10° 20:31:59 10° 184° (S) 2,445 6.2 -8.4°
Maximum altitude 20:37:23 50° 110° (ESE) 1,064 4.4 -9.0°
Drops below altitude 10° 20:42:52 10° 36° (NE) 2,486 6.8 -9.6°
Sets 20:45:24 0° 32° (NNE) 3,433 7.6 -9.8°
